Weather History for Mansfield, OH

Change the Weather History Date:

Tuesday, July 9, 2013

  Actual Average Record
Temperature  
Mean Temperature 78 °F 72 °F  
Max Temperature 87 °F 82 °F 100 °F (1936)
Min Temperature 69 °F 61 °F 46 °F (1918)
Degree Days  
Heating Degree Days 0 0  
Month to date heating degree days 0 0  
Since 1 June heating degree days 39 53  
Since 1 July heating degree days 0 0  
Cooling Degree Days 13 7  
Month to date cooling degree days 77 63  
Year to date cooling degree days 320 243  
Since 1 June cooling degree days 225 197  
Growing Degree Days 28 (Base 50)    
Moisture  
Dew Point 71 °F    
Average Humidity 83    
Maximum Humidity 100    
Minimum Humidity 65    
Precipitation  
Precipitation 1.78 in 0.15 in 1.78 in (2013)
Month to date precipitation 3.81 1.33  
Year to date precipitation 24.67 23.41  
Snow  
Snow 0.00 in 0.00 in - ()
Month to date snowfall 0.0 0.0  
Since 1 June snowfall 0.0 0.0  
Since 1 July snowfall 0.0 0.0  
Snow Depth 0.00 in    
Sea Level Pressure  
Sea Level Pressure 30.04 in    
Wind  
Wind Speed 9 mph (SSW)    
Max Wind Speed 17 mph    
Max Gust Speed 24 mph    
Visibility 6 miles    
Events Rain , Thunderstorm    
T = Trace of Precipitation, MM = Missing Value Source: NWS Daily Summary

Daily Weather History Graph

Daily Weather History Graph

Search for Another Location

Airport:

Trip Planner

Search our weather history database for the weather conditions in past years. The results will help you decide how hot, cold, wet, or windy it might be!

Date:

Astronomy

Jul. 09, 2013 Rise Set
Actual Time 6:07 AM EDT 9:03 PM EDT
Civil Twilight 5:34 AM EDT 9:35 PM EDT
Nautical Twilight 4:52 AM EDT 10:17 PM EDT
Astronomical Twilight 4:04 AM EDT 11:05 PM EDT
Moon 7:31 AM EDT (7/9) 9:38 PM EDT (7/9)
Length of Visible Light 16h 01m
Length of Day
14h 56m
New Moon, 2% of the Moon is Illuminated
Jul 9
New Moon
Jul 15
First Quarter
Jul 22
Full
Jul 29
Last Quarter
Aug 6
New

Hourly Weather History & Observations

Time (EDT) Temp. Heat Index Dew Point Humidity Pressure Visibility Wind Dir Wind Speed Gust Speed Precip Events Conditions
12:52 AM 71.1 °F - 70.0 °F 96% 30.05 in 8.0 mi South 6.9 mph - 0.02 in   Overcast
1:00 AM 71.6 °F - 69.8 °F 94% 30.09 in 4.0 mi South 8.1 mph - 0.01 in Rain Light Rain
1:07 AM 71.6 °F - 69.8 °F 94% 30.08 in 1.8 mi South 9.2 mph - 0.07 in Rain Heavy Rain
1:23 AM 69.8 °F - 69.8 °F 100% 30.08 in 1.8 mi South 8.1 mph - 0.29 in Rain Heavy Rain
1:30 AM 69.8 °F - 69.8 °F 100% 30.08 in 2.0 mi South 10.4 mph - 0.37 in Rain Heavy Rain
1:50 AM 69.8 °F - 69.8 °F 100% 30.08 in 4.0 mi South 8.1 mph - 0.54 in Rain Rain
1:52 AM 70.0 °F - 69.1 °F 97% 30.05 in 4.0 mi South 8.1 mph - 0.54 in Rain Rain
2:35 AM 71.6 °F - 69.8 °F 94% 30.06 in 2.0 mi South 9.2 mph - 0.19 in Rain Heavy Rain
2:40 AM 69.8 °F - 69.8 °F 100% 30.06 in 3.0 mi South 10.4 mph - 0.20 in Rain Rain
2:52 AM 71.1 °F - 70.0 °F 96% 30.03 in 7.0 mi South 10.4 mph - 0.21 in   Overcast
3:32 AM 71.6 °F - 69.8 °F 94% 30.05 in 8.0 mi SSW 9.2 mph - N/A Thunderstorm Overcast
3:43 AM 69.8 °F - 69.8 °F 100% 30.06 in 2.5 mi South 10.4 mph - 0.05 in Rain , Thunderstorm Heavy Rain
3:52 AM 71.1 °F - 70.0 °F 96% 30.04 in 3.0 mi SSW 11.5 mph - 0.11 in Rain , Thunderstorm Thunderstorms and Rain
3:56 AM 71.6 °F - 69.8 °F 94% 30.05 in 2.5 mi SSW 17.3 mph - 0.02 in Rain , Thunderstorm Heavy Thunderstorms and Rain
4:06 AM 69.8 °F - 69.8 °F 100% 30.05 in 1.8 mi SSW 11.5 mph 24.2 mph 0.15 in Rain , Thunderstorm Heavy Thunderstorms and Rain
4:13 AM 69.8 °F - 69.8 °F 100% 30.04 in 1.5 mi South 13.8 mph - 0.34 in Rain , Thunderstorm Heavy Rain
4:21 AM 69.8 °F - 69.8 °F 100% 30.04 in 3.0 mi SSE 8.1 mph - 0.47 in Rain , Thunderstorm Rain
4:30 AM 69.8 °F - 68.0 °F 94% 30.04 in 9.0 mi South 6.9 mph - 0.50 in Rain Light Rain
4:47 AM 69.8 °F - 69.8 °F 100% 30.05 in 10.0 mi Variable 5.8 mph - 0.50 in Thunderstorm Overcast
4:52 AM 72.0 °F - 69.1 °F 91% 30.02 in 10.0 mi WSW 4.6 mph - 0.50 in Rain , Thunderstorm Light Rain
4:58 AM 71.6 °F - 69.8 °F 94% 30.05 in 10.0 mi Variable 5.8 mph - 0.00 in   Overcast
5:04 AM 71.6 °F - 69.8 °F 94% 30.05 in 10.0 mi SSW 6.9 mph - 0.00 in Thunderstorm Overcast
5:44 AM 71.6 °F - 69.8 °F 94% 30.05 in 10.0 mi SSW 5.8 mph - 0.00 in   Overcast
5:52 AM 71.1 °F - 70.0 °F 96% 30.02 in 9.0 mi South 4.6 mph - 0.00 in   Overcast
6:52 AM 72.0 °F - 72.0 °F 100% 30.04 in 4.0 mi SSW 6.9 mph - N/A   Mostly Cloudy
7:52 AM 73.9 °F - 72.0 °F 93% 30.04 in 5.0 mi SW 6.9 mph - N/A   Overcast
8:52 AM 73.9 °F - 72.0 °F 93% 30.03 in 6.0 mi WSW 9.2 mph - 0.00 in   Overcast
9:25 AM 75.2 °F - 73.4 °F 94% 30.05 in 7.0 mi WSW 9.2 mph - N/A   Overcast
9:52 AM 75.0 °F - 72.0 °F 90% 30.03 in 7.0 mi WSW 6.9 mph - N/A   Overcast
10:52 AM 75.9 °F - 73.0 °F 91% 30.04 in 6.0 mi WSW 8.1 mph - N/A   Overcast
11:11 AM 77.0 °F - 73.4 °F 89% 30.06 in 7.0 mi WSW 8.1 mph - N/A   Overcast
11:52 AM 80.1 °F 84.5 °F 73.9 °F 81% 30.03 in 7.0 mi WSW 11.5 mph - N/A   Mostly Cloudy
12:40 PM 80.6 °F 85.4 °F 73.4 °F 79% 30.06 in 7.0 mi WSW 9.2 mph - N/A   Overcast
12:52 PM 81.0 °F 85.8 °F 73.0 °F 77% 30.04 in 7.0 mi WSW 9.2 mph - N/A   Mostly Cloudy
1:04 PM 82.4 °F 88.2 °F 73.4 °F 74% 30.06 in 7.0 mi SW 9.2 mph - N/A   Mostly Cloudy
1:52 PM 84.0 °F 91.2 °F 73.9 °F 72% 30.02 in 8.0 mi SW 9.2 mph - N/A   Mostly Cloudy
2:20 PM 84.2 °F 90.9 °F 73.4 °F 70% 30.04 in 9.0 mi West 9.2 mph - N/A   Mostly Cloudy
2:52 PM 86.0 °F 93.0 °F 73.0 °F 65% 30.00 in 10.0 mi West 8.1 mph - N/A   Mostly Cloudy
3:52 PM 84.9 °F 92.1 °F 73.9 °F 69% 29.98 in 10.0 mi SSW 6.9 mph - N/A   Scattered Clouds
4:52 PM 84.9 °F 91.4 °F 73.0 °F 67% 29.96 in 10.0 mi WSW 8.1 mph - N/A   Clear
5:01 PM 82.4 °F 88.2 °F 73.4 °F 74% 30.00 in 10.0 mi WSW 6.9 mph - N/A Thunderstorm Thunderstorm
5:52 PM 75.0 °F - 71.1 °F 87% 30.01 in 10.0 mi SSW 15.0 mph - N/A Thunderstorm Overcast
5:58 PM 75.2 °F - 71.6 °F 89% 30.04 in 2.0 mi SW 13.8 mph - 0.01 in Rain , Thunderstorm Light Thunderstorms and Rain
6:09 PM 71.6 °F - 69.8 °F 94% 30.03 in 2.0 mi South 4.6 mph - 0.19 in Rain Rain
6:11 PM 71.6 °F - 69.8 °F 94% 30.03 in 3.0 mi Calm Calm - 0.20 in Rain , Thunderstorm Thunderstorms and Rain
6:52 PM 72.0 °F - 71.1 °F 97% 29.97 in 10.0 mi SSE 5.8 mph - 0.20 in   Clear
7:21 PM 73.4 °F - 71.6 °F 94% 30.01 in 10.0 mi SSW 8.1 mph - N/A Thunderstorm Partly Cloudy
7:52 PM 73.0 °F - 71.1 °F 93% 30.03 in 9.0 mi West 11.5 mph 18.4 mph 0.06 in Rain , Thunderstorm Light Rain
8:11 PM 71.6 °F - 69.8 °F 94% 30.03 in 4.0 mi Calm Calm - 0.04 in Rain , Thunderstorm Heavy Rain
8:13 PM 71.6 °F - 69.8 °F 94% 30.03 in 1.5 mi West 4.6 mph - 0.05 in Rain , Thunderstorm Heavy Rain
8:23 PM 71.6 °F - 69.8 °F 94% 30.03 in 3.0 mi SSW 4.6 mph - 0.12 in Rain , Thunderstorm Rain
8:52 PM 72.0 °F - 71.1 °F 97% 30.01 in 10.0 mi South 6.9 mph - 0.13 in Thunderstorm Scattered Clouds
9:07 PM 71.6 °F - 71.6 °F 100% 30.04 in 8.0 mi South 8.1 mph - 0.01 in Rain , Thunderstorm Light Rain
9:41 PM 71.6 °F - 71.6 °F 100% 30.03 in 10.0 mi SSW 11.5 mph - 0.03 in Rain Light Rain
9:52 PM 72.0 °F - 70.0 °F 93% 30.01 in 10.0 mi SSW 11.5 mph - 0.03 in   Mostly Cloudy
10:52 PM 70.0 °F - 69.1 °F 97% 30.01 in 10.0 mi SSW 8.1 mph - N/A   Mostly Cloudy
11:52 PM 71.1 °F - 70.0 °F 96% 29.98 in 10.0 mi South 6.9 mph - N/A   Scattered Clouds